CW2550 Weather Reports


Display with metric or nautical units.
time (UTC)temp
F
wind
direction
speed
MPH
gust
MPH
rain 1hr
in
rain 24hr
in
rain mn
in
humidity
%
barometer
mb
20260510041542 48 296 2.0 9.0 0.00 0.00 0.00 46 1013.9
20260510040047 48 290 1.0 5.0 0.00 0.00 0.00 46 1013.8
20260510034544 49 306 1.0 4.0 0.00 0.00 0.00 44 1013.7
20260510033048 49 277 1.0 5.0 0.00 0.00 0.00 43 1013.5
20260510031544 50 323 1.0 5.0 0.00 0.00 0.00 42 1013.3
20260510030046 50 321 1.0 6.0 0.00 0.00 0.00 42 1013.2
20260510024541 51 335 1.0 6.0 0.00 0.00 0.00 41 1013.0
20260510023044 52 328 1.0 4.0 0.00 0.00 0.00 40 1012.7
20260510021541 52 324 2.0 8.0 0.00 0.00 0.00 39 1012.2
20260510020044 53 315 2.0 8.0 0.00 0.00 0.00 38 1011.8
20260510014547 53 325 3.0 8.0 0.00 0.00 0.00 37 1011.7
20260510013037 54 323 3.0 10.0 0.00 0.00 0.00 36 1011.4
20260510011545 55 308 3.0 11.0 0.00 0.00 0.00 35 1011.3
20260510010043 55 317 4.0 16.0 0.00 0.00 0.00 34 1011.0
20260510004543 56 326 5.0 15.0 0.00 0.00 0.00 34 1010.8
20260510003042 56 308 6.0 13.0 0.00 0.00 0.00 32 1010.6
20260510001545 57 360 7.0 14.0 0.00 0.00 0.00 33 1010.4
20260510000100 57 249 6.0 14.0 0.00 0.00 0.00 33 1010.3
20260509234552 57 344 7.0 14.0 0.00 0.00 0.00 32 1010.0
20260509233045 57 327 7.0 20.0 0.00 0.00 0.00 30 1010.0
20260509231544 58 336 7.0 15.0 0.00 0.00 0.00 31 1009.7
20260509230044 58 336 5.0 13.0 0.00 0.00 0.00 32 1009.5
20260509224539 58 311 8.0 19.0 0.00 0.00 0.00 31 1009.4
20260509223044 58 333 7.0 17.0 0.00 0.00 0.00 31 1009.2
20260509221545 58 339 7.0 19.0 0.00 0.00 0.00 31 1009.1
20260509220043 58 337 10.0 16.0 0.00 0.00 0.00 31 1009.0
20260509214540 58 344 10.0 17.0 0.00 0.00 0.00 31 1009.0
20260509213049 58 340 8.0 17.0 0.00 0.00 0.00 32 1008.9
20260509211544 58 340 7.0 17.0 0.00 0.00 0.00 32 1008.8
20260509210052 58 316 8.0 23.0 0.00 0.00 0.00 31 1008.8
20260509204550 58 341 11.0 20.0 0.00 0.00 0.00 33 1008.7
20260509203047 58 326 9.0 19.0 0.00 0.00 0.00 31 1008.6
20260509201540 57 327 9.0 16.0 0.00 0.00 0.00 34 1008.4
20260509200059 58 323 12.0 26.0 0.00 0.00 0.00 33 1008.4
20260509194544 57 360 11.0 20.0 0.00 0.00 0.00 34 1008.1
20260509193043 57 333 12.0 19.0 0.00 0.00 0.00 33 1008.0
20260509191540 57 291 9.0 19.0 0.00 0.00 0.00 36 1008.1
20260509190039 57 347 11.0 18.0 0.00 0.00 0.00 37 1007.9
20260509184556 57 338 10.0 17.0 0.00 0.00 0.00 37 1007.7
20260509183041 57 346 10.0 20.0 0.00 0.00 0.00 38 1007.4
20260509181548 57 324 10.0 18.0 0.00 0.00 0.00 37 1007.3
20260509180043 57 340 12.0 22.0 0.00 0.00 0.00 37 1007.2
20260509174539 56 338 7.0 19.0 0.00 0.00 0.00 39 1007.0
20260509173051 56 345 8.0 19.0 0.00 0.00 0.00 39 1006.9
20260509171542 56 339 11.0 21.0 0.00 0.00 0.00 40 1007.0
20260509170043 56 312 10.0 23.0 0.00 0.00 0.00 42 1006.7
20260509164541 55 342 10.0 21.0 0.00 0.00 0.00 43 1006.8
20260509163047 55 328 11.0 19.0 0.00 0.00 0.00 42 1006.7
20260509161544 55 315 5.0 18.0 0.00 0.00 0.00 45 1006.8
20260509160045 54 315 8.0 18.0 0.00 0.00 0.00 47 1006.6
20260509154548 54 296 7.0 17.0 0.00 0.00 0.00 51 1006.5
20260509153046 53 314 10.0 18.0 0.00 0.00 0.00 53 1006.5
20260509151552 53 342 8.0 16.0 0.00 0.00 0.00 59 1006.1
20260509150044 52 347 9.0 20.0 0.00 0.00 0.00 61 1005.7
20260509144600 52 336 7.0 20.0 0.00 0.00 0.00 63 1005.3
20260509143049 52 322 9.0 22.0 0.00 0.00 0.00 63 1005.3
20260509141542 51 344 7.0 17.0 0.00 0.00 0.00 66 1005.1
20260509140041 52 336 9.0 20.0 0.00 0.00 0.00 67 1004.7
20260509134604 52 339 8.0 18.0 0.00 0.00 0.00 70 1004.4
20260509133047 52 314 7.0 19.0 0.00 0.00 0.00 72 1004.2
20260509131551 52 327 9.0 21.0 0.00 0.00 0.00 71 1004.0
20260509130053 52 338 8.0 19.0 0.00 0.00 0.00 72 1003.6
20260509124549 51 327 6.0 15.0 0.00 0.00 0.00 72 1003.4
20260509123106 51 338 5.0 11.0 0.00 0.00 0.00 72 1003.2
20260509121600 49 314 3.0 12.0 0.00 0.00 0.00 73 1003.0
20260509120041 49 0 0.0 3.0 0.00 0.00 0.00 72 1003.0
20260509114542 48 319 0.0 3.0 0.00 0.00 0.00 71 1002.8
20260509113040 48 315 0.0 5.0 0.00 0.00 0.00 70 1002.4
20260509111555 48 177 1.0 3.0 0.00 0.00 0.00 67 1002.2
20260509110043 49 176 1.0 5.0 0.00 0.00 0.00 61 1001.9
20260509104546 50 325 0.0 3.0 0.00 0.00 0.00 58 1002.3
20260509103056 50 323 1.0 4.0 0.00 0.00 0.00 57 1002.3
20260509101615 49 325 3.0 8.0 0.00 0.00 0.00 56 1002.2
20260509100042 49 322 2.0 5.0 0.00 0.00 0.00 55 1002.0
20260509094543 49 323 2.0 6.0 0.00 0.00 0.00 56 1001.8
20260509093044 48 322 1.0 4.0 0.00 0.00 0.00 59 1001.7
20260509091545 47 310 1.0 6.0 0.00 0.00 0.00 60 1001.8
20260509090043 48 197 2.0 5.0 0.00 0.00 0.00 58 1001.1
20260509084540 47 198 3.0 4.0 0.00 0.00 0.00 58 1000.9
20260509083042 47 197 2.0 4.0 0.00 0.00 0.00 59 1000.8
20260509081546 48 197 2.0 4.0 0.00 0.00 0.00 58 1000.8
20260509080042 48 196 3.0 6.0 0.00 0.00 0.00 55 1000.9
20260509074546 48 182 2.0 4.0 0.00 0.00 0.00 54 1000.6
20260509073050 48 199 2.0 4.0 0.00 0.00 0.00 56 1001.0
20260509071545 48 0 1.0 4.0 0.00 0.00 0.00 53 1001.0
20260509070047 48 212 1.0 3.0 0.00 0.00 0.00 54 1001.3
20260509064551 49 212 1.0 4.0 0.00 0.00 0.00 52 1001.4
20260509063043 49 213 2.0 4.0 0.00 0.00 0.00 52 1001.4
20260509061540 51 309 1.0 2.0 0.00 0.00 0.00 46 1001.6
20260509060044 52 309 1.0 3.0 0.00 0.00 0.00 46 1002.0
20260509054556 53 309 2.0 3.0 0.00 0.00 0.00 44 1002.2
20260509053046 54 309 1.0 2.0 0.00 0.00 0.00 43 1002.1
20260509051545 55 0 0.0 2.0 0.00 0.00 0.00 42 1002.4
20260509050042 56 0 0.0 2.0 0.00 0.00 0.00 41 1002.4
20260509044547 57 0 1.0 4.0 0.00 0.00 0.00 40 1002.5
20260509043043 57 319 1.0 6.0 0.00 0.00 0.00 39 1002.5